Regional Weather Roundup
Issued by NWS

Home | Current Version | Previous Version | Graphics & Text | Print | Product List | Glossary On
Versions: 1 2 3 4 5 6 7 8 9 10 11 12 13 14 15 16 17 18 19 20 21 22 23 24 25 26 27 28 29 30 31 32 33 34 35 36 37 38 39 40 41 42 43 44 45 46 47 48 49 50
000
ASUS43 KIND 280559
RWRIN

WEATHER ROUNDUP FOR INDIANA
NATIONAL WEATHER SERVICE INDIANAPOLIS IN
200 AM EDT SAT MAR 28 2015

NOTE: "FAIR" INDICATES FEW OR NO CLOUDS BELOW 12,000 FEET WITH NO
SIGNIFICANT WEATHER AND/OR OBSTRUCTIONS TO VISIBILITY.

* - STATION DOES NOT REPORT WEATHER SUCH AS PRECIPITATION OR FOG.

+ - STATION NOT QUALITY CONTROLLED BY THE NATIONAL WEATHER SERVICE.
    USE DATA WITH CAUTION...ESPECIALLY DEWPOINT AND RELATIVE
    HUMIDITY OBSERVATIONS.

INZ001>003-010>013-019-020-280700-
NORTHWEST INDIANA

CITY           SKY/WX    TMP DP  RH WIND       PRES   REMARKS

$$

LMZ046-743>745-280700-
SOUTHERN LAKE MICHIGAN

STATION/POSITION TIME  TEMP WIND        PRES
                       AIR  DIR/SP/G
                 (UTC) (F)  (DEG/KT/KT) (MB)
BURNS HARBOR     0500   26   20/ 17/ 21 1023.0F
MICHIGAN CITY    0500   24  360/ 19/ 22   N/A

$$

INZ004-005-014>016-021>024-280700-
NORTH CENTRAL INDIANA

CITY           SKY/WX    TMP DP  RH WIND       PRES   REMARKS
GOSHEN         CLEAR     18  10  71 N7        30.17S WCI   9
6HR MIN TEMP:  18; 6HR MAX TEMP:  24;

SOUTH BEND     FAIR      17  10  74 N7        30.19S WCI   8
6HR MIN TEMP:  16; 6HR MAX TEMP:  23;


$$

INZ006>009-017-018-025>027-280700-
NORTHEAST INDIANA

CITY           SKY/WX    TMP DP  RH WIND       PRES   REMARKS
ANGOLA *+      CLEAR     18  10  73 N3        30.14S
FORT WAYNE     CLEAR     20  13  74 N8        30.16R WCI  10
6HR MIN TEMP:  20; 6HR MAX TEMP:  28;


$$

INZ028-029-035-036-043>045-051>053-280700-
WEST CENTRAL INDIANA

CITY           SKY/WX    TMP DP  RH WIND       PRES   REMARKS
CRAWFORDSVL +  CLEAR     19   9  67 N8        30.19S WCI   8
6HR MIN TEMP:  19; 6HR MAX TEMP:  26;

GREENCASTLE +  CLEAR     21  10  63 N5        30.18S WCI  15
LAFAYETTE      CLEAR     19  12  74 N3        30.21S
6HR MIN TEMP:  19; 6HR MAX TEMP:  25;

TERRE HAUTE    CLEAR     24  15  68 N8        30.21S WCI  15
6HR MIN TEMP:  24; 6HR MAX TEMP:  32;


$$

INZ030>032-037>040-046>048-054>057-064-065-280700-
CENTRAL INDIANA

CITY           SKY/WX    TMP DP  RH WIND       PRES   REMARKS
INDIANAPOLIS   CLEAR     21  11  65 N10       30.16R WCI  10
6HR MIN TEMP:  21; 6HR MAX TEMP:  29; 6HR PCP: TRACE;

-EAGLE CREEK   CLEAR     21  12  68 N10       30.16S WCI  10
6HR MIN TEMP:  21; 6HR MAX TEMP:  29;

KOKOMO *+        N/A     19  12  73 N7        30.17S WCI  10
6HR MIN TEMP:  19; 6HR MAX TEMP:  27;

MT COMFORT *+  CLEAR     21   7  53 N9        30.16F WCI  11
SHELBYVILLE    CLEAR     23  13  65 N13       30.16R WCI  11
6HR MIN TEMP:  23; 6HR MAX TEMP:  31;


$$

INZ033-034-041-042-049-050-058-059-280700-
EAST CENTRAL INDIANA

CITY           SKY/WX    TMP DP  RH WIND       PRES   REMARKS
MUNCIE         CLEAR     21  13  71 NW8       30.15S WCI  11
6HR MIN TEMP:  21; 6HR MAX TEMP:  28;


$$

INZ060-061-067>069-081>083-085>088-280700-
SOUTHWEST INDIANA

CITY           SKY/WX    TMP DP  RH WIND       PRES   REMARKS
EVANSVILLE     CLEAR     30  18  60 N5        30.20S WCI  25
6HR MIN TEMP:  30; 6HR MAX TEMP:  38;

HUNTINGBURG *+ CLEAR     27  16  63 N6        30.19S WCI  20
6HR MIN TEMP:  27; 6HR MAX TEMP:  34;


$$

INZ062-063-066-070>080-084-089>092-280700-
SOUTH CENTRAL AND SOUTHEAST INDIANA

CITY           SKY/WX    TMP DP  RH WIND       PRES   REMARKS
BLOOMINGTON    CLEAR     22  14  71 N8        30.16F WCI  12
6HR MIN TEMP:  22; 6HR MAX TEMP:  31;

SEYMOUR +      CLEAR     27  12  54 N8        30.16F WCI  18

$$



USA.gov is the U.S. government's official web portal to all federal, state and local government web resources and services.